#timestamp,LO_Frequency,Hit,StdDev 
1653411615.3,286047000.5,N
1653411635.1,286047000.7,N
1653411655.9,286047000.8,N
1653411675.7,286047000.6,N
1653411695.5,286047000.4,N
1653411715.4,286046998.2,N
1653411735.2,286046998.3,N
1653411755.1,286046998.6,N
1653411756.0,286046998.6,N
1653411775.8,286047000.5,N
1653411795.6,286046998.7,N
1653411815.5,286046998.5,N
1653411835.3,286046998.8,N
1653411855.1,286047001.2,N
1653411875.9,286046998.3,N
1653411895.7,286046998.2,N
1653411915.6,286046998.6,N
1653411935.4,286047000.7,N
1653411955.2,286046998.4,N
1653411975.1,286046998.1,N
1653411976.0,286046998.1,N
1653411995.8,286047000.8,N
1653412015.7,286046998.3,N
1653412035.5,286046998.2,N
1653412055.3,286046998.5,N
1653412075.2,286047001.2,N
1653412095.0,286047000.2,N
1653412095.9,286047000.2,N
1653412115.8,286047002.5,N
1653412135.6,286046999.7,N
1653412155.4,286047011.9,Y
1653412175.3,286046999.8,P
1653412195.1,286047002.7,P
1653412215.8,286047001.6,N
1653412235.7,286047001.6,N
1653412255.5,286047002.5,N
1653412275.4,286047002.5,N
1653412295.2,286047001.9,N
1653412315.0,286046999.8,N
1653412315.9,286046999.8,N
1653412335.8,286046999.8,N
1653412355.6,286046999.8,N
1653412375.4,286047000.8,N
1653412395.3,286047002.8,N
1653412415.1,286047004.4,Y
1653412435.9,286047000.4,P
1653412455.7,286046999.7,N
1653412475.5,286047000.9,N
1653412495.4,286046999.9,N
1653412515.2,286047000.8,N
1653412535.1,286047000.4,N
1653412536.0,286047000.4,N
1653412555.8,286047001.1,N
1653412575.1,286047000.5,N
1653412576.0,286047000.5,N
1653412595.8,286047000.6,N
1653412615.6,286046999.7,N
1653412635.5,286047002.3,Y
1653412655.3,286047002.8,P
1653412675.1,286047001.9,N
1653412695.9,286047001.5,N
1653412715.7,286047002.4,N
1653412735.6,286047001.4,N
1653412755.4,286047001.4,N
1653412775.2,286047001.9,N
1653412795.1,286047002.1,Y
1653412796.0,286047002.1,P
1653412815.8,286047001.0,P
1653412835.6,286047000.0,N
1653412855.5,286047000.7,N
1653412875.3,286046998.1,N
1653412895.2,286046998.4,N
1653412915.0,286046998.3,N
1653412915.9,286046998.3,N
1653412935.7,286046999.0,N
1653412955.6,286046999.3,N
1653412975.4,286046999.3,N
1653412995.3,286046999.5,N
1653413015.1,286046999.2,N
1653413016.0,286046999.2,N
1653413035.8,286046998.6,N
1653413055.7,286046998.5,N
1653413075.5,286046998.1,N
1653413095.3,286047001.2,N
1653413115.2,286046999.0,N
1653413135.0,286046999.0,N
1653413135.9,286046999.0,N
1653413155.8,286046999.4,N
1653413175.6,286046999.0,N
1653413195.4,286046998.5,N
1653413215.3,286046998.3,N
1653413235.1,286046998.9,N
1653413255.9,286047001.1,N
1653413275.7,286047001.9,N
1653413295.6,286047001.5,N
1653413315.4,286047002.5,N
1653413335.3,286047010.1,Y
1653413355.1,286047012.0,P
1653413375.8,286047010.3,N
1653413395.7,286047009.1,N
1653413415.5,286047005.0,N
1653413435.4,286047005.4,N
1653413455.2,286047005.4,N
1653413475.0,286047005.4,N
1653413475.9,286047005.4,N
1653413495.8,286047005.8,N
1653413515.6,286047003.0,N
1653413535.4,286047003.4,N
1653413555.3,286047005.5,N
1653413575.1,286047003.7,N
1653413595.9,286047003.1,N
1653413615.7,286047001.4,N
1653413635.5,286047002.5,N
1653413655.4,286047001.5,N
1653413675.2,286047001.5,N
1653413695.0,286047002.7,N
1653413695.9,286047002.7,N
1653413715.8,286047002.6,N
1653413735.6,286046999.8,N
1653413755.5,286047000.1,N
1653413775.3,286047000.0,N
1653413795.1,286047002.8,N
1653413815.9,286046999.7,N
1653413835.7,286047002.3,N
1653413855.5,286047002.3,N
1653413875.4,286046999.7,N
1653413895.2,286047002.2,N
1653413915.1,286047002.8,N
1653413916.0,286047002.8,N
1653413935.8,286047002.3,N
1653413955.5,286047000.1,N
1653413975.3,286047000.9,N
1653413995.2,286046998.2,N
1653414015.0,286046999.3,N
1653414015.9,286046999.3,N
1653414035.8,286047000.0,N
1653414055.6,286047000.0,N
1653414075.4,286046999.8,N
1653414095.3,286047002.7,N
1653414115.1,286047002.7,N
1653414135.9,286047002.4,N
1653414155.7,286047002.4,N
1653414175.5,286047002.8,N
1653414195.4,286047002.8,N
1653414215.2,286047001.9,N
1653414235.1,286047002.7,N
1653414236.0,286047002.7,N
1653414255.8,286047000.7,N
1653414275.6,286047000.1,N
1653414295.5,286047002.1,N
1653414315.3,286047002.8,N
1653414335.1,286047002.4,N
1653414355.9,286047002.4,N
1653414375.7,286047002.3,N
1653414395.6,286047002.1,N
1653414415.4,286047002.2,N
1653414435.2,286047001.5,N
1653414455.1,286047001.3,N
1653414456.0,286047001.3,N
1653414475.8,286047001.8,N
1653414495.7,286047002.4,N
1653414515.5,286047002.3,N
1653414535.3,286046999.7,N
1653414555.2,286047002.4,N
1653414575.0,286047002.4,N
1653414575.9,286047002.4,N
1653414595.7,286047002.0,N
1653414615.6,286047001.6,N
1653414635.4,286047001.6,N
1653414655.3,286047002.5,Y
1653414675.1,286047000.8,P
1653414676.0,286047000.8,N
1653414695.8,286047000.0,N
1653414715.7,286047000.3,N
1653414735.5,286047000.5,N
1653414755.4,286047000.4,N
1653414775.2,286047000.6,N
1653414795.0,286046999.7,N
1653414826.0,286047002.8,E
1653414835.9,286047001.2,N
1653414855.7,286046999.4,P
1653414875.6,286046999.0,N
1653414895.4,286046999.6,N
1653414915.2,286046999.2,N
1653414935.1,286046996.6,Y
1653414936.0,286046996.6,P
1653414955.8,286046996.8,N
1653414975.7,286046996.7,N
1653414995.5,286046997.8,N
1653415015.3,286046996.6,N
1653415035.2,286046997.1,N
1653415055.0,286046997.2,N
1653415055.9,286046997.2,N
1653415075.8,286046996.9,Y
1653415095.6,286046999.7,P
1653415115.4,286047002.4,N
1653415135.3,286047000.5,N
1653415155.1,286047002.8,N
1653415175.8,286047002.4,N
1653415195.7,286046999.7,N
